Zacatecas Airport, Mexico

12:30 AM CDT on July 27, 2017 (GMT -0500)
Gen Leobardo C Ruiz International

Weather History for MMZC - October, 2011

Change the Weather History Date:

Sunday, October 2, 2011

  Actual Average Record
Temperature  
Mean Temperature 58 °F -  
Max Temperature 71 °F 73 °F 113 °F (2004)
Min Temperature 44 °F 48 °F 33 °F (2008)
Degree Days  
Heating Degree Days 8    
Growing Degree Days 8 (Base 50)    
Moisture  
Dew Point 44 °F    
Average Humidity 59    
Maximum Humidity 87    
Minimum Humidity 38    
Precipitation  
Precipitation 0.00 in - - ()
Sea Level Pressure  
Sea Level Pressure 30.34 in    
Wind  
Wind Speed 7 mph ()    
Max Wind Speed 17 mph    
Max Gust Speed -    
Visibility 9.8 miles    
Events      
Averages and records for this station are not official NWS values.
T = Trace of Precipitation, MM = Missing Value Source: Averaged Metar Reports

Daily Weather History Graph

Daily Weather History Graph

Search for Another Location

Airport or City:

Trip Planner

Search our weather history database for the weather conditions in past years. The results will help you decide how hot, cold, wet, or windy it might be!

Date:

Astronomy

Oct. 02, 2011 Rise Set
Actual Time 7:42 AM CDT 7:37 PM CDT
Civil Twilight 7:20 AM CDT 7:59 PM CDT
Nautical Twilight 6:54 AM CDT 8:25 PM CDT
Astronomical Twilight 6:27 AM CDT 8:51 PM CDT
Moon 1:12 PM CDT (10/2) No Moon Set
Length of Visible Light 12h 39m
Length of Day
11h 54m
Waxing Crescent, 35% of the Moon is Illuminated
Oct 2
Waxing Crescent
Oct 3
First Quarter
Oct 11
Full
Oct 19
Last Quarter
Oct 26
New

Hourly Weather History & Observations

Time (CDT) Temp. Windchill Dew Point Humidity Pressure Visibility Wind Dir Wind Speed Gust Speed Precip Events Conditions
12:40 AM 53.6 °F - 44.6 °F 72% 30.36 in 10.0 mi SSE 8.1 mph - N/A   Scattered Clouds
1:41 AM 53.6 °F - 44.6 °F 72% 30.37 in 10.0 mi SSE 5.8 mph - N/A   Scattered Clouds
2:41 AM 53.6 °F - 44.6 °F 72% 30.36 in 10.0 mi South 5.8 mph - N/A   Scattered Clouds
4:02 AM 51.8 °F - 44.6 °F 76% 30.36 in 10.0 mi ENE 3.5 mph - N/A   Scattered Clouds
4:41 AM 51.8 °F - 44.6 °F 76% 30.35 in 10.0 mi East 5.8 mph - N/A   Scattered Clouds
5:41 AM 48.2 °F - 44.6 °F 87% 30.34 in 10.0 mi SE 5.8 mph - N/A   Clear
6:41 AM 46.4 °F 43.5 °F 42.8 °F 87% 30.35 in 10.0 mi South 5.8 mph - N/A   Scattered Clouds
7:42 AM 44.6 °F - 39.2 °F 81% 30.37 in 8.0 mi Calm Calm - N/A   Clear
8:40 AM 51.8 °F - 44.6 °F 76% 30.37 in 8.0 mi Calm Calm - N/A   Partly Cloudy
10:12 AM 60.8 °F - 46.4 °F 59% 30.40 in 10.0 mi SSE 11.5 mph - N/A   Scattered Clouds
10:41 AM 60.8 °F - 46.4 °F 59% 30.39 in 10.0 mi SSE 9.2 mph - N/A   Scattered Clouds
11:42 AM 64.4 °F - 46.4 °F 52% 30.39 in 10.0 mi SE 11.5 mph - N/A   Scattered Clouds
12:44 PM 69.8 °F - 46.4 °F 43% 30.37 in 10.0 mi ESE 16.1 mph - N/A   Mostly Cloudy
1:45 PM 69.8 °F - 46.4 °F 43% 30.35 in 10.0 mi East 17.3 mph - N/A   Mostly Cloudy
2:40 PM 69.8 °F - 44.6 °F 40% 30.32 in 10.0 mi ESE 13.8 mph - N/A   Mostly Cloudy
3:40 PM 71.6 °F - 44.6 °F 38% 30.30 in 10.0 mi East 17.3 mph - N/A   Mostly Cloudy
4:41 PM 69.8 °F - 44.6 °F 40% 30.30 in 10.0 mi East 10.4 mph - N/A   Mostly Cloudy
5:40 PM 69.8 °F - 44.6 °F 40% 30.28 in 10.0 mi East 11.5 mph - N/A   Mostly Cloudy
6:40 PM 69.8 °F - 42.8 °F 38% 30.28 in 10.0 mi East 11.5 mph - N/A   Mostly Cloudy
7:40 PM 64.4 °F - 42.8 °F 45% 30.29 in 10.0 mi East 11.5 mph - N/A   Scattered Clouds
8:41 PM 62.6 °F - 42.8 °F 48% 30.30 in 10.0 mi ESE 11.5 mph - N/A   Scattered Clouds
9:49 PM 60.8 °F - 42.8 °F 52% 30.33 in 10.0 mi SE 11.5 mph - N/A   Partly Cloudy
10:42 PM 57.2 °F - 42.8 °F 59% 30.35 in 10.0 mi Calm Calm - N/A   Partly Cloudy
11:42 PM 57.2 °F - 42.8 °F 59% 30.36 in 10.0 mi SSE 6.9 mph - N/A   Clear